Probability
0 0 0 0 0 0 0 0 0 0 0 0 0 0 0 0 0 0 1 2 2 1 0 1 4 5 4 3 1 0 0 0 0 0 0 0 0 0 0 0 0 0 0 0 0 0 0 0 0
0 0 0 0 0 0 0 0 0 0 0 0 0 0 0 0 0 0 1 2 3 2 1 1 3 5 5 4 1 0 0 0 0 0 0 0 0 0 0 0 0 0 0 0 0 0 0 0 0
0 0 0 0 0 0 0 0 0 0 1 1 0 0 0 0 0 0 1 3 4 3 2 1 2 4 6 5 2 0 0 0 0 0 0 0 0 0 0 0 0 0 0 0 0 0 0 0 0
0 0 0 0 0 0 0 0 0 1 2 2 1 0 0 1 2 2 2 3 4 4 3 3 3 4 6 6 4 1 0 0 0 0 0 0 0 0 0 0 0 0 0 0 0 0 0 0 0
0 0 0 0 0 0 0 0 1 4 5 4 2 0 0 3 6 5 3 3 3 3 3 4 5 7 9 9 6 4 2 1 1 1 1 1 1 1 0 0 0 0 0 0 0 0 0 0 0
0 0 0 0 0 0 0 1 5 9 9 7 4 2 1 5 7 4 1 1 1 1 3 4 6 10 13 13 10 7 5 4 4 3 3 3 3 2 1 1 1 0 1 1 0 0 0 0 0
0 0 0 0 0 0 1 4 10 16 16 10 6 4 3 5 6 4 2 1 0 1 2 3 4 8 12 14 13 11 8 7 5 5 5 4 4 4 4 3 2 1 3 4 2 0 1 1 1
0 0 0 0 0 0 3 8 16 22 21 16 10 6 4 6 9 10 10 7 3 1 1 2 3 4 7 10 12 11 9 8 6 4 4 4 4 4 5 5 3 3 7 10 8 6 6 5 4
0 0 0 0 0 1 5 12 18 24 26 22 16 10 8 12 19 25 25 19 10 5 2 1 2 1 3 6 7 6 6 6 5 3 2 2 3 4 4 5 6 9 15 19 20 19 17 13 11
0 0 0 0 0 3 9 16 20 27 32 28 21 17 18 25 32 40 42 34 21 11 5 3 1 2 3 4 5 4 3 4 4 3 2 2 4 5 5 5 9 17 25 30 33 34 32 29 28
0 0 0 0 2 7 15 25 31 36 37 34 30 29 35 43 47 52 56 49 35 23 16 11 9 7 7 8 9 7 5 7 9 9 8 8 10 11 9 8 12 23 34 42 47 48 47 48 48
0 0 0 2 6 14 23 36 47 50 49 49 50 52 58 63 64 67 69 66 56 47 40 33 28 25 22 22 21 15 13 16 18 19 18 20 22 20 16 15 18 25 35 45 52 54 54 54 53
0 0 0 3 10 21 33 45 55 62 65 70 73 75 76 76 76 77 79 79 76 71 67 61 53 49 46 42 36 28 26 27 27 27 28 31 33 29 23 22 22 24 29 36 41 44 45 44 43
0 0 0 3 10 23 38 47 55 63 72 78 81 81 80 79 78 79 81 82 82 81 79 75 69 64 59 52 45 42 40 38 36 35 36 38 37 33 27 22 20 18 19 23 27 28 28 28 29
0 0 0 2 7 18 33 44 48 54 63 69 71 72 72 72 71 71 75 77 78 77 75 73 68 60 52 44 41 44 46 45 42 39 38 37 34 29 24 20 17 13 11 14 16 16 14 14 15
0 0 0 1 4 12 27 38 39 38 43 47 50 52 54 54 53 55 59 62 64 62 60 59 55 45 36 31 32 35 40 42 40 36 33 30 26 21 18 16 15 12 9 9 10 9 8 7 7
0 0 0 0 2 9 23 32 29 23 21 22 26 29 29 30 32 34 37 40 42 41 39 37 34 27 22 21 21 23 25 27 27 25 23 21 18 14 11 11 11 10 9 8 7 6 5 5 5
0 0 0 0 2 10 21 26 20 12 7 7 9 11 11 12 14 17 19 22 23 22 20 17 14 12 12 12 12 12 12 12 12 10 10 12 11 8 6 5 5 6 6 5 4 3 3 4 3
0 0 0 0 3 9 16 17 12 6 3 2 2 4 4 4 4 5 7 9 10 10 9 7 5 4 5 6 6 5 4 5 4 3 3 5 5 3 2 2 1 1 2 1 1 1 1 2 2
0 0 0 0 3 7 10 9 6 4 2 1 1 2 2 1 0 1 1 2 3 3 2 3 3 2 2 3 3 2 1 1 1 1 1 1 1 1 1 0 0 0 0 0 0 0 0 0 0
0 0 0 0 2 4 4 4 4 3 2 0 0 1 1 0 0 0 0 0 1 1 1 1 1 1 1 1 1 0 0 0 0 0 0 0 0 0 0 0 0 0 0 0 0 0 0 0 0
0 0 0 0 1 1 1 1 2 2 1 0 0 0 0 0 0 0 0 0 1 2 2 1 0 0 0 0 0 0 0 0 0 0 0 0 0 0 0 0 0 0 0 0 0 0 0 0 0
0 0 0 0 0 0 0 0 0 0 0 0 0 0 0 0 0 0 0 0 1 2 3 1 0 0 0 0 0 0 0 0 0 0 0 0 0 0 0 0 0 0 0 0 0 0 0 0 0
0 0 0 0 0 0 0 0 0 0 0 0 0 0 0 0 0 0 0 0 1 2 2 1 0 0 0 0 0 0 0 0 0 0 0 0 0 0 0 0 0 0 0 0 0 0 0 0 0
0 0 0 0 0 0 0 0 0 0 0 0 0 0 0 0 0 0 0 0 0 1 1 0 0 0 0 0 0 0 0 0 0 0 0 0 0 0 0 0 0 0 0 0 0 0 0 0 0
0 0 0 0 0 0 0 0 0 0 0 0 0 0 0 0 0 0 0 0 0 0 0 0 0 0 0 0 0 0 0 0 0 0 0 0 0 0 0 0 0 0 0 0 0 0 0 0 0
0 0 0 0 0 0 0 0 0 0 0 0 0 0 0 0 0 0 0 0 0 0 0 0 0 0 0 0 0 0 0 0 0 0 0 0 0 0 0 0 0 0 0 0 0 0 0 0 0
0 0 0 0 0 0 0 0 0 0 0 0 0 0 0 0 0 0 0 0 0 0 0 0 0 0 0 0 0 0 0 0 0 0 0 0 0 0 0 0 0 0 0 0 0 0 0 0 0
0 0 0 0 0 0 0 0 0 0 0 0 0 0 0 0 0 0 0 0 0 0 0 0 0 0 0 0 0 0 0 0 0 0 0 0 0 0 0 0 0 0 0 0 0 0 0 0 0
0 0 0 0 0 0 0 0 0 0 0 0 0 0 0 0 0 0 0 0 0 0 0 0 0 0 0 0 0 0 0 0 0 0 0 0 0 0 0 0 0 0 0 0 0 0 0 0 0
Wind_Speed
10 7 3 2 2 1 5 6 2 1 2 6 10 10 7 6 4 4 2 15 19 17 13 15 17 18 18 18 18 17 16 16 15 15 15 14 14 14 14 14 13 13 13 12 12 11 11 11 11
7 6 2 1 1 1 6 5 2 3 6 10 10 9 7 7 9 10 6 13 18 16 11 13 17 17 18 18 17 17 16 16 15 15 14 14 14 13 13 12 12 12 12 12 11 11 10 10 9
7 4 2 1 2 4 6 5 4 4 4 6 6 5 5 5 9 7 9 16 15 13 10 13 19 18 18 17 16 16 16 15 15 14 14 14 13 12 12 11 11 11 11 11 11 10 10 9 9
4 2 1 1 7 9 9 9 3 4 5 7 8 6 5 4 6 12 17 16 15 11 9 12 18 17 17 16 16 16 15 15 15 14 14 13 13 12 12 11 10 10 11 11 10 10 9 9 8
2 2 1 3 7 9 10 10 3 5 5 7 10 7 5 6 18 21 18 16 15 11 8 11 17 17 16 16 15 15 14 14 14 14 13 13 12 12 12 11 11 10 10 10 10 9 9 9 8
1 2 1 4 7 10 9 3 7 10 10 10 10 7 4 10 17 17 16 14 14 13 9 10 16 17 16 15 15 14 14 13 13 13 13 12 12 12 11 11 11 11 11 11 10 10 10 9 9
2 1 3 5 7 7 5 3 8 10 8 6 7 7 5 9 14 15 14 14 13 13 10 7 8 11 15 15 14 14 13 13 12 12 12 12 12 12 11 11 11 12 12 12 11 11 11 11 10
4 1 4 4 6 6 6 8 6 8 7 5 6 9 6 9 13 14 14 12 11 9 9 8 6 6 6 8 13 14 13 13 12 12 12 12 12 11 12 10 11 12 13 13 13 13 12 12 11
1 2 4 4 4 5 5 7 6 7 10 7 6 6 8 12 15 15 13 11 9 9 6 7 7 6 6 6 10 11 12 12 11 10 12 10 5 5 6 10 12 13 14 14 14 14 14 13 12
4 3 8 7 5 5 4 4 3 6 10 8 8 8 11 12 12 13 13 12 10 10 9 7 7 7 6 7 5 4 5 5 5 4 5 4 4 4 7 8 14 16 16 16 16 16 14 12 6
4 7 9 10 10 5 1 4 5 8 7 4 7 9 10 11 9 10 11 11 9 10 10 8 8 7 6 4 4 2 2 3 4 5 5 4 4 3 4 3 6 9 12 9 10 10 7 6 5
5 10 11 10 10 4 1 4 7 9 7 7 10 11 12 12 9 8 9 8 7 8 8 7 6 5 4 4 4 3 2 3 3 4 5 4 3 3 3 2 3 3 3 4 5 4 7 7 7
7 11 12 10 6 1 5 7 9 9 11 14 16 16 13 12 10 10 8 7 7 7 6 6 6 6 4 4 3 2 2 3 3 3 3 4 3 3 2 2 2 2 2 3 4 5 7 8 8
6 7 7 5 1 2 8 7 8 7 11 15 16 15 13 12 10 9 8 8 7 7 6 6 6 5 4 3 2 2 1 2 2 1 2 3 3 2 1 1 1 1 2 2 4 5 6 6 6
4 5 7 4 3 2 9 11 8 7 11 14 13 12 12 10 9 8 6 6 6 5 5 4 5 4 4 3 2 2 2 2 1 1 1 2 2 2 1 1 1 2 2 3 3 4 4 5 6
5 5 5 6 4 2 9 8 6 6 10 10 10 10 10 7 7 6 6 6 5 5 5 4 5 5 4 2 2 1 1 2 1 1 1 2 2 2 1 1 1 2 2 2 2 3 3 4 5
5 3 4 6 6 4 9 7 4 5 8 8 7 7 7 6 6 5 5 5 4 4 4 4 4 4 3 3 3 3 3 2 1 0 1 1 1 2 1 1 1 1 1 2 3 2 2 4 4
4 2 3 4 7 10 11 8 6 5 6 5 5 6 5 5 4 4 4 5 5 4 4 4 4 4 3 3 3 3 3 3 2 1 1 1 1 1 1 1 1 1 1 2 2 3 3 3 4
1 1 2 3 6 10 11 10 5 5 5 3 3 3 4 3 3 4 4 5 4 4 4 4 4 3 3 3 2 2 2 2 3 2 2 1 1 1 1 1 1 2 2 3 3 2 3 3 2
2 1 1 4 6 7 9 8 3 4 1 2 3 4 4 4 4 4 4 4 4 4 4 4 4 3 3 2 1 1 0 1 1 2 3 3 3 3 2 3 3 3 2 3 3 3 2 3 2
2 4 5 5 3 7 7 3 3 2 2 3 3 4 5 7 7 6 6 6 5 6 6 6 5 4 4 3 2 2 2 3 3 3 3 3 4 4 4 4 4 4 3 3 4 3 3 3 3
3 6 9 9 6 2 2 2 4 3 5 4 3 3 6 7 7 7 7 7 7 7 6 5 5 4 3 3 2 2 1 1 2 2 3 5 5 5 5 4 4 4 4 4 4 3 3 3 3
4 4 6 7 6 4 3 2 5 3 4 5 4 5 6 8 9 9 8 8 6 5 4 4 4 3 3 3 3 2 1 2 2 3 4 4 5 5 5 4 3 4 3 4 4 3 3 2 3
7 8 7 6 5 3 2 1 4 4 6 4 5 6 7 7 7 6 4 3 2 3 4 4 4 3 3 3 3 3 3 4 3 4 4 4 3 4 5 4 3 3 3 4 4 4 3 3 3
6 6 3 4 4 1 2 0 6 7 7 7 6 6 5 4 4 4 4 4 3 4 4 3 4 2 2 3 3 3 4 4 4 4 4 4 3 4 5 5 3 3 3 4 4 4 4 4 4
2 8 7 3 3 1 2 2 7 7 6 6 6 4 2 3 4 5 4 4 4 4 4 3 3 2 2 2 3 4 4 3 3 4 4 4 4 4 5 5 4 4 4 5 4 3 4 4 4
2 1 5 8 5 4 1 4 7 4 4 5 5 4 4 4 5 5 4 4 4 4 3 3 2 1 2 3 3 4 4 4 4 5 4 4 4 5 5 5 5 5 5 5 4 4 5 4 5
4 3 6 5 5 3 2 4 5 6 6 5 5 5 4 4 5 4 4 4 3 3 2 2 2 2 2 3 3 3 4 4 5 4 5 5 6 5 6 6 6 6 6 5 5 4 5 5 5
4 4 5 4 5 6 4 5 7 9 8 7 6 7 7 6 5 4 4 3 3 2 2 1 1 2 2 3 4 4 4 5 5 5 6 6 6 6 6 6 6 6 6 6 5 6 6 6 6
3 3 6 4 1 4 5 5 3 8 7 8 7 6 6 6 5 4 4 2 2 1 2 2 2 3 3 4 4 4 5 5 5 6 7 6 7 6 7 6 7 7 7 6 6 7 7 6 7
Wind_Direction
154 144 143 108 60 359 266 256 247 309 45 66 75 79 76 56 98 130 99 139 136 142 146 146 144 141 140 139 137 136 134 132 131 131 130 130 130 131 131 133 134 135 135 135 134 132 130 130 130
148 150 136 81 114 303 269 242 226 208 138 113 86 80 76 75 88 104 110 134 137 138 139 143 143 142 141 142 142 141 140 139 139 140 140 141 141 142 142 143 144 143 142 142 141 140 140 139 139
163 172 135 143 238 228 256 252 219 208 156 119 92 63 67 90 108 115 132 135 131 132 133 145 143 142 143 143 144 146 146 146 147 148 149 150 150 151 152 153 154 154 151 150 151 150 150 151 152
145 138 327 231 249 247 249 261 217 149 86 84 101 65 46 48 105 126 135 136 130 128 132 145 143 143 144 145 147 150 151 153 154 156 157 158 160 161 162 164 165 165 163 162 162 161 161 165 168
100 130 229 266 257 262 264 250 193 120 101 96 97 86 47 44 111 128 136 138 134 130 134 142 143 143 145 147 151 154 156 158 158 160 163 166 168 169 171 174 176 177 175 174 173 174 176 180 185
107 134 195 263 272 280 278 254 112 97 104 103 96 97 80 114 122 135 139 138 136 136 136 142 147 147 148 150 153 156 158 161 163 165 169 173 175 176 180 183 185 186 186 186 185 187 189 194 200
160 174 239 269 295 304 335 32 87 101 93 90 110 100 113 133 138 139 137 135 137 140 140 142 149 151 154 155 157 159 162 164 168 171 175 179 182 185 189 193 196 197 197 197 198 199 200 204 209
181 97 297 300 308 310 355 34 61 77 81 89 101 122 152 157 140 134 131 131 134 140 147 147 147 148 153 160 165 167 169 172 176 179 183 187 192 195 200 202 206 207 208 207 209 210 210 212 216
176 63 269 267 298 305 353 57 46 51 80 63 62 107 135 137 130 127 128 128 138 146 154 153 154 157 159 165 177 175 178 183 185 189 195 196 200 204 210 215 215 218 219 217 217 217 217 218 222
142 192 240 237 263 285 344 47 84 78 68 65 67 75 103 116 123 130 138 145 153 159 167 169 168 172 174 182 174 178 187 188 189 192 201 196 196 213 222 227 229 229 229 227 225 224 223 223 223
195 221 248 265 267 260 313 33 48 104 76 88 110 104 101 101 106 125 137 144 155 161 167 169 171 176 180 182 158 179 193 190 201 205 207 208 208 219 233 232 242 238 235 232 231 230 225 221 215
237 255 257 268 268 264 183 103 64 70 97 93 93 93 84 84 82 101 115 127 140 143 149 154 157 147 157 148 155 169 186 187 197 214 213 205 207 214 219 221 235 228 224 220 223 224 227 227 224
245 260 265 268 271 245 102 100 95 77 87 83 81 76 78 84 82 81 91 96 101 104 112 124 119 123 125 123 136 132 147 159 177 196 204 192 189 207 207 220 232 233 213 214 225 226 229 230 228
250 268 286 292 276 117 109 92 81 85 88 82 78 76 78 81 86 88 83 82 84 87 89 100 102 107 106 109 121 124 118 121 129 149 186 174 170 181 191 218 223 242 233 226 223 228 232 232 228
313 329 333 347 19 111 98 64 69 91 88 85 85 84 82 82 81 82 86 88 87 85 82 92 95 81 85 77 70 83 92 102 99 119 141 140 144 152 164 202 239 238 231 234 236 234 232 238 238
357 9 343 327 3 33 91 95 92 91 91 87 89 90 86 78 79 84 86 85 84 84 77 73 84 69 59 52 44 57 59 70 93 124 134 136 145 148 152 181 244 258 252 246 247 238 234 240 241
17 359 316 323 2 39 83 107 102 80 90 92 92 94 95 92 86 88 92 98 97 94 92 81 77 72 60 49 43 43 39 27 11 40 178 182 160 147 150 198 251 276 280 268 269 265 247 250 250
305 312 311 342 14 53 71 80 70 49 76 90 97 102 102 106 111 117 113 112 112 107 98 88 75 68 63 47 41 34 26 11 2 339 265 216 193 176 166 201 253 262 277 281 276 276 266 255 254
260 324 358 24 41 63 69 66 40 33 40 57 96 111 123 133 138 130 132 128 124 117 110 108 100 82 69 52 44 35 4 349 350 346 336 315 293 271 227 237 252 247 245 257 268 271 277 270 256
86 82 47 38 44 78 83 72 22 29 326 247 176 166 158 168 165 163 161 162 159 157 155 148 140 130 116 111 115 136 212 306 325 353 354 346 327 304 277 249 246 243 242 256 258 253 267 268 240
171 182 178 151 87 83 96 52 322 313 297 275 215 183 186 189 186 189 190 196 191 187 183 172 170 158 145 131 97 46 30 11 2 349 333 325 313 298 285 270 253 242 226 236 245 237 240 265 267
233 198 169 154 126 90 136 181 270 268 281 258 233 204 209 206 194 196 197 199 202 204 188 174 169 158 152 132 116 115 115 273 268 272 289 305 308 303 296 284 266 247 232 229 239 231 225 238 267
197 159 133 128 112 82 30 107 280 304 280 265 250 234 225 213 200 200 201 203 205 197 172 164 154 156 162 154 152 153 198 231 259 282 301 305 307 307 307 303 284 265 248 238 236 237 233 228 238
126 91 71 65 78 64 283 157 273 240 235 254 251 242 231 218 203 199 193 157 132 122 130 142 150 174 186 182 186 193 217 241 268 290 297 300 301 305 307 305 300 283 268 255 244 234 234 238 242
105 102 57 16 35 302 273 169 257 255 241 231 239 239 230 206 166 151 138 130 137 136 137 143 154 191 218 219 228 230 233 241 251 265 270 280 290 295 297 300 292 288 281 272 257 245 243 240 243
161 137 149 178 170 205 300 263 263 267 255 237 235 232 214 170 148 143 144 142 143 138 139 146 159 201 240 247 258 259 257 252 249 248 246 254 258 266 276 280 274 273 274 276 262 254 250 244 243
51 38 153 123 104 108 242 290 303 283 256 231 223 208 188 158 139 134 128 130 135 136 149 156 157 207 255 261 267 269 269 253 249 258 258 259 261 271 280 280 278 277 274 269 262 251 253 248 243
109 129 70 84 119 117 185 218 226 222 215 212 196 170 156 143 133 132 133 141 150 152 150 143 160 216 259 274 274 274 266 263 264 267 269 268 270 273 282 282 278 275 271 266 258 254 251 246 246
20 40 88 98 135 138 177 252 225 197 190 173 171 166 161 153 151 154 157 161 155 146 153 180 229 258 279 282 278 283 280 277 276 270 268 268 268 269 270 271 274 275 272 266 258 253 255 250 251
171 165 134 121 20 122 135 264 272 163 164 159 166 169 163 159 164 163 161 156 150 180 230 242 252 262 267 271 278 279 278 279 277 272 269 266 265 264 261 262 265 267 270 263 256 257 259 247 248